BGA29 KJFK-OMDB

Flight info

Callsign BGA29
Flight time N/A
Altitude 35000
Route MERIT DCT HFD DCT PUT DCT TOPPS N683B NEEKO/M082F360 DCT 54N050W 55N040W 55N030W 54N020W DCT MALOT DCT GISTI/N0480F370 DCT LESLU DCT LIZAD DCT JSY DCT ARSUK DCT RESMI DCT ODEBU DCT OGULO DCT OKASI DCT OKEKO DCT MOU DCT MADIV DCT MOKIP/N0464F390 DCT TUFTA DCT KOGAS DCT MEDAM DCT NITAM DCT MOGBO DCT UPDIN DCT SOMAS DCT BELIX DCT SALUN N705 MMA P751 DASUM Y234 FYM M872 BDB Y214 RAPMA DCT KUVSO DCT KATIT DCT PEKEM M628 RIGIL G783 ELUDA/N0489F350 G783 ASPED Q308 KIPOK Q568 IMPED
Aircraft A333/H-SDE3GHIJ2J3J5M1RVWXY/LB2D1

Departure

Time 2026-05-01 09:34
Airport John F. Kennedy International Airport (KJFK)

Arrival

Time N/A
Airport Dubai International Airport (OMDB)
Time Latitude Longitude Altitude Speed Heading
2026-05-01 09:22 40.64923 -73.77819 30 ft 0 kts 123°
2026-05-01 09:26 40.64922 -73.77817 24 ft 2 kts 123°
2026-05-01 09:26 40.64892 -73.77751 29 ft 0 kts 119°
2026-05-01 09:26 40.64885 -73.77735 27 ft 10 kts 119°
2026-05-01 09:27 40.64724 -73.77382 29 ft 23 kts 119°
2026-05-01 09:27 40.64645 -73.77204 30 ft 21 kts 121°
2026-05-01 09:27 40.64543 -73.77096 27 ft 18 kts 171°
2026-05-01 09:28 40.64424 -73.77114 28 ft 17 kts 202°
2026-05-01 09:28 40.64321 -73.77190 30 ft 17 kts 212°
2026-05-01 09:28 40.64220 -73.77269 30 ft 17 kts 211°
2026-05-01 09:28 40.64120 -73.77348 27 ft 17 kts 211°
2026-05-01 09:29 40.63916 -73.77507 26 ft 17 kts 210°
2026-05-01 09:29 40.63812 -73.77588 28 ft 17 kts 211°
2026-05-01 09:30 40.63605 -73.77751 25 ft 18 kts 211°
2026-05-01 09:30 40.63499 -73.77834 29 ft 17 kts 211°
2026-05-01 09:30 40.63359 -73.77896 28 ft 9 kts 140°
2026-05-01 09:31 40.63293 -73.77771 28 ft 20 kts 121°
2026-05-01 09:31 40.63207 -73.77582 26 ft 27 kts 120°
2026-05-01 09:31 40.63015 -73.77158 28 ft 23 kts 123°
2026-05-01 09:32 40.62907 -73.77120 28 ft 16 kts 204°
2026-05-01 09:32 40.62851 -73.77286 26 ft 0 kts 299°
2026-05-01 09:33 40.62857 -73.77301 27 ft 11 kts 299°
2026-05-01 09:33 40.63014 -73.77644 29 ft 78 kts 301°
2026-05-01 09:33 40.63985 -73.79785 383 ft 175 kts 303°
2026-05-01 09:34 40.64600 -73.81279 1068 ft 202 kts 291°
2026-05-01 09:34 40.64550 -73.83295 1490 ft 248 kts 253°
2026-05-01 09:34 40.61926 -73.86845 2216 ft 269 kts 223°
2026-05-01 09:35 40.60508 -73.88423 2603 ft 266 kts 226°
2026-05-01 09:35 40.57786 -73.91713 3384 ft 265 kts 227°
2026-05-01 09:35 40.56440 -73.93372 3764 ft 266 kts 221°
2026-05-01 09:36 40.54910 -73.94731 4149 ft 265 kts 215°
2026-05-01 09:36 40.53341 -73.95991 4570 ft 264 kts 214°
2026-05-01 09:36 40.51792 -73.97226 4965 ft 263 kts 215°
2026-05-01 09:36 40.50231 -73.98481 5344 ft 262 kts 215°
2026-05-01 09:37 40.48679 -73.99736 5731 ft 262 kts 215°
2026-05-01 09:37 40.45558 -74.02274 6514 ft 265 kts 215°
2026-05-01 09:37 40.43989 -74.03550 6883 ft 266 kts 215°
2026-05-01 09:38 40.40838 -74.06114 7635 ft 267 kts 216°
2026-05-01 09:38 40.39231 -74.07425 8001 ft 277 kts 216°
2026-05-01 09:38 40.37602 -74.08747 8802 ft 272 kts 216°
2026-05-01 09:39 40.34397 -74.11347 10186 ft 273 kts 217°
2026-05-01 09:39 40.32745 -74.12696 10441 ft 287 kts 217°
2026-05-01 09:39 40.31006 -74.14114 10656 ft 301 kts 217°
2026-05-01 09:40 40.29208 -74.15572 11094 ft 307 kts 217°
2026-05-01 09:40 40.25417 -74.18214 12197 ft 320 kts 197°
2026-05-01 09:40 40.23144 -74.18114 12700 ft 339 kts 171°
2026-05-01 09:41 40.21008 -74.16661 13175 ft 359 kts 145°
2026-05-01 09:41 40.18746 -74.10732 14063 ft 385 kts 94°
2026-05-01 09:41 40.19093 -74.07269 14449 ft 387 kts 68°
2026-05-01 09:42 40.20420 -74.04251 14837 ft 381 kts 43°
2026-05-01 09:42 40.22479 -74.02188 15236 ft 368 kts 18°
2026-05-01 09:42 40.27198 -74.01919 16090 ft 335 kts 329°
2026-05-01 09:43 40.30877 -74.05391 17009 ft 328 kts 319°
2026-05-01 09:43 40.32985 -74.06677 17425 ft 344 kts 337°
2026-05-01 09:43 40.35398 -74.07070 17844 ft 360 kts 355°
2026-05-01 09:44 40.40349 -74.05120 18595 ft 387 kts 21°
2026-05-01 09:44 40.42675 -74.03266 18926 ft 394 kts 27°
2026-05-01 09:44 40.44921 -74.01170 19284 ft 398 kts 31°
2026-05-01 09:45 40.47153 -73.98965 19610 ft 401 kts 32°
2026-05-01 09:45 40.51649 -73.94555 20239 ft 405 kts 30°
2026-05-01 09:45 40.53933 -73.92383 20560 ft 407 kts 30°
2026-05-01 09:46 40.56245 -73.90224 20872 ft 409 kts 29°
2026-05-01 09:46 40.58576 -73.88072 21176 ft 411 kts 28°
2026-05-01 09:46 40.60926 -73.85912 21491 ft 413 kts 28°
2026-05-01 09:46 40.63293 -73.83740 21815 ft 415 kts 29°
2026-05-01 09:47 40.65664 -73.81561 22100 ft 417 kts 28°
2026-05-01 09:47 40.68048 -73.79366 22389 ft 419 kts 28°
2026-05-01 09:47 40.70417 -73.77182 22668 ft 421 kts 28°
2026-05-01 09:47 40.72823 -73.74960 22952 ft 423 kts 28°
2026-05-01 09:48 40.75243 -73.72722 23213 ft 426 kts 28°
2026-05-01 09:48 40.77669 -73.70476 23481 ft 428 kts 28°
2026-05-01 09:48 40.80112 -73.68211 23706 ft 430 kts 28°
2026-05-01 09:48 40.82565 -73.65936 23963 ft 431 kts 29°
2026-05-01 09:49 40.85016 -73.63661 24220 ft 431 kts 29°
2026-05-01 09:49 40.87466 -73.61383 24519 ft 430 kts 29°
2026-05-01 09:49 40.89913 -73.59104 24818 ft 429 kts 29°
2026-05-01 09:49 40.92353 -73.56829 25098 ft 429 kts 29°
2026-05-01 09:50 40.94817 -73.54530 25391 ft 428 kts 29°
2026-05-01 09:50 40.97254 -73.52256 25652 ft 428 kts 29°
2026-05-01 09:50 40.99684 -73.49987 25924 ft 428 kts 29°
2026-05-01 09:50 41.02114 -73.47716 26223 ft 427 kts 29°
2026-05-01 09:51 41.04539 -73.45448 26504 ft 426 kts 29°
2026-05-01 09:51 41.06958 -73.43183 26757 ft 426 kts 29°
2026-05-01 09:51 41.09351 -73.40941 27025 ft 426 kts 29°
2026-05-01 09:51 41.11761 -73.38681 27292 ft 425 kts 29°
2026-05-01 09:52 41.14178 -73.36412 27543 ft 425 kts 29°
2026-05-01 09:52 41.16591 -73.34145 27797 ft 424 kts 29°
2026-05-01 09:52 41.18995 -73.31883 28105 ft 424 kts 30°
2026-05-01 09:52 41.21403 -73.29616 28340 ft 423 kts 30°
2026-05-01 09:53 41.23804 -73.27353 28576 ft 423 kts 30°
2026-05-01 09:53 41.26204 -73.25090 28811 ft 423 kts 30°
2026-05-01 09:53 41.28599 -73.22829 29057 ft 423 kts 30°
2026-05-01 09:53 41.30996 -73.20564 29296 ft 422 kts 30°
2026-05-01 09:54 41.33392 -73.18299 29508 ft 422 kts 30°
2026-05-01 09:54 41.35788 -73.16031 29730 ft 422 kts 30°
2026-05-01 09:54 41.38120 -73.13649 29963 ft 427 kts 41°
2026-05-01 09:54 41.40038 -73.10589 30120 ft 433 kts 52°
2026-05-01 09:55 41.41648 -73.07197 30273 ft 435 kts 58°
2026-05-01 09:55 41.43097 -73.03699 30428 ft 436 kts 60°
2026-05-01 09:55 41.44520 -73.00126 30604 ft 435 kts 60°
2026-05-01 09:55 41.45950 -72.96572 30766 ft 435 kts 59°
2026-05-01 09:56 41.47408 -72.93048 30914 ft 434 kts 59°
2026-05-01 09:56 41.48898 -72.89543 31109 ft 433 kts 58°
2026-05-01 09:56 41.49895 -72.87237 31215 ft 433 kts 58°
2026-05-01 09:56 41.51924 -72.82597 31403 ft 433 kts 58°
2026-05-01 09:57 41.54959 -72.75698 31685 ft 433 kts 58°
2026-05-01 09:57 41.56482 -72.72232 31825 ft 433 kts 58°
2026-05-01 09:57 41.58006 -72.68755 31952 ft 433 kts 58°
2026-05-01 09:58 41.60534 -72.62971 32158 ft 434 kts 58°
2026-05-01 09:58 41.62072 -72.59444 32277 ft 434 kts 59°
2026-05-01 09:58 41.63571 -72.56002 32419 ft 433 kts 59°
2026-05-01 09:59 41.65101 -72.52530 32544 ft 433 kts 58°
2026-05-01 09:59 41.66646 -72.49082 32676 ft 433 kts 58°
2026-05-01 09:59 41.68204 -72.45635 32810 ft 433 kts 58°
2026-05-01 09:59 41.69770 -72.42177 32911 ft 433 kts 58°
2026-05-01 10:00 41.71332 -72.38725 33014 ft 433 kts 58°
2026-05-01 10:00 41.72887 -72.35277 33117 ft 434 kts 58°
2026-05-01 10:00 41.74447 -72.31811 33219 ft 434 kts 58°
2026-05-01 10:00 41.76005 -72.28341 33316 ft 434 kts 58°
2026-05-01 10:01 41.79104 -72.21421 33554 ft 432 kts 58°
2026-05-01 10:01 41.80644 -72.17973 33674 ft 432 kts 58°
2026-05-01 10:01 41.82192 -72.14505 33802 ft 432 kts 59°
2026-05-01 10:02 41.85280 -72.07578 33961 ft 432 kts 59°
2026-05-01 10:02 41.88341 -72.00692 34115 ft 432 kts 59°
2026-05-01 10:03 41.91416 -71.93762 34271 ft 431 kts 59°
2026-05-01 10:03 41.94476 -71.86847 34431 ft 429 kts 59°
2026-05-01 10:04 41.96189 -71.83585 34505 ft 427 kts 46°
2026-05-01 10:04 41.98275 -71.80751 34579 ft 426 kts 40°
2026-05-01 10:04 42.02858 -71.75708 34696 ft 424 kts 36°
2026-05-01 10:05 42.07503 -71.70810 34817 ft 424 kts 37°
2026-05-01 10:05 42.12089 -71.65779 34894 ft 426 kts 38°
2026-05-01 10:06 42.16649 -71.60638 34901 ft 429 kts 38°
2026-05-01 10:06 42.21231 -71.55427 34886 ft 432 kts 38°
2026-05-01 10:07 42.25829 -71.50190 34890 ft 432 kts 38°
2026-05-01 10:07 42.30419 -71.44958 34892 ft 431 kts 38°
2026-05-01 10:08 42.37293 -71.37110 34885 ft 431 kts 39°
2026-05-01 10:09 42.41870 -71.31872 34877 ft 431 kts 39°
2026-05-01 10:09 42.46432 -71.26641 34880 ft 431 kts 39°
2026-05-01 10:10 42.51019 -71.21370 34894 ft 430 kts 39°
2026-05-01 10:10 42.57324 -71.14107 34897 ft 430 kts 39°
2026-05-01 10:11 42.61059 -71.09794 34901 ft 430 kts 39°
2026-05-01 10:11 42.65623 -71.04517 34904 ft 430 kts 40°
2026-05-01 10:12 42.70148 -70.99274 34891 ft 430 kts 40°
2026-05-01 10:13 42.76970 -70.91349 34891 ft 430 kts 40°
2026-05-01 10:13 42.81514 -70.86060 34876 ft 430 kts 40°
2026-05-01 10:14 42.88320 -70.78114 34861 ft 429 kts 41°
2026-05-01 10:14 42.92853 -70.72807 34845 ft 429 kts 41°
2026-05-01 10:15 42.97390 -70.67485 34853 ft 430 kts 41°
2026-05-01 10:15 43.01922 -70.62160 34843 ft 430 kts 41°
2026-05-01 10:16 43.06460 -70.56816 34851 ft 430 kts 41°
2026-05-01 10:17 43.13257 -70.48792 34845 ft 430 kts 41°
2026-05-01 10:17 43.20026 -70.40778 34851 ft 430 kts 41°
2026-05-01 10:18 43.26811 -70.32718 34850 ft 430 kts 41°
2026-05-01 10:19 43.31338 -70.27328 34852 ft 430 kts 42°
2026-05-01 10:19 43.35860 -70.21932 34836 ft 431 kts 42°
2026-05-01 10:20 43.42639 -70.13823 34840 ft 431 kts 42°
2026-05-01 10:20 43.47157 -70.08404 34835 ft 430 kts 43°
2026-05-01 10:21 43.53921 -70.00271 34829 ft 430 kts 43°
2026-05-01 10:22 43.60677 -69.92122 34833 ft 430 kts 43°
2026-05-01 10:23 43.67394 -69.83995 34836 ft 430 kts 43°
2026-05-01 10:23 43.74155 -69.75789 34836 ft 430 kts 43°
2026-05-01 10:24 43.83121 -69.64868 34819 ft 429 kts 44°
2026-05-01 10:25 43.92045 -69.53952 34818 ft 429 kts 44°
2026-05-01 10:26 43.96543 -69.48433 34826 ft 428 kts 44°
2026-05-01 10:27 44.05435 -69.37487 34814 ft 428 kts 44°
2026-05-01 10:28 44.12126 -69.29222 34798 ft 428 kts 44°
2026-05-01 10:28 44.18795 -69.20957 34797 ft 428 kts 44°
2026-05-01 10:29 44.25431 -69.12707 34798 ft 427 kts 45°
2026-05-01 10:30 44.34296 -69.01644 34803 ft 427 kts 45°
2026-05-01 10:31 44.43163 -68.90534 34793 ft 427 kts 45°
2026-05-01 10:32 44.49785 -68.82205 34784 ft 427 kts 45°
2026-05-01 10:33 44.58614 -68.71059 34770 ft 426 kts 46°
2026-05-01 10:34 44.65207 -68.62705 34768 ft 426 kts 46°
2026-05-01 10:34 44.69596 -68.57128 34767 ft 426 kts 46°
2026-05-01 10:35 44.76181 -68.48739 34765 ft 426 kts 46°
2026-05-01 10:35 44.80567 -68.43137 34763 ft 426 kts 46°
2026-05-01 10:36 44.87111 -68.34754 34760 ft 426 kts 46°
2026-05-01 10:37 44.91486 -68.29136 34757 ft 425 kts 46°
2026-05-01 10:37 44.98046 -68.20688 34758 ft 425 kts 46°
2026-05-01 10:38 45.02413 -68.15050 34740 ft 425 kts 46°
2026-05-01 10:38 45.06781 -68.09399 34752 ft 425 kts 46°
2026-05-01 10:39 45.10412 -68.04692 34748 ft 425 kts 46°
2026-05-01 10:39 45.14767 -67.99033 34746 ft 425 kts 47°
2026-05-01 10:40 45.19117 -67.93369 34750 ft 425 kts 47°
2026-05-01 10:40 45.23465 -67.87696 34736 ft 425 kts 47°
2026-05-01 10:41 45.27826 -67.81992 34747 ft 426 kts 47°
2026-05-01 10:42 45.34357 -67.73422 34747 ft 425 kts 47°
2026-05-01 10:42 45.38650 -67.67639 34740 ft 425 kts 49°
2026-05-01 10:43 45.42915 -67.61822 34743 ft 424 kts 49°
2026-05-01 10:43 45.47172 -67.56006 34744 ft 424 kts 49°
2026-05-01 10:44 45.51435 -67.50184 34737 ft 424 kts 49°
2026-05-01 10:44 45.55692 -67.44360 34740 ft 424 kts 49°
2026-05-01 10:45 45.59918 -67.38568 34743 ft 425 kts 49°
2026-05-01 10:45 45.64214 -67.32666 34744 ft 425 kts 49°
2026-05-01 10:46 45.68464 -67.26815 34741 ft 425 kts 49°
2026-05-01 10:46 45.72720 -67.20941 34741 ft 425 kts 49°
2026-05-01 10:47 45.76975 -67.15055 34741 ft 425 kts 49°
2026-05-01 10:47 45.81196 -67.09204 34744 ft 425 kts 50°
2026-05-01 10:48 45.85440 -67.03308 34745 ft 425 kts 50°
2026-05-01 10:48 45.89685 -66.97397 34755 ft 425 kts 50°
2026-05-01 10:49 45.93926 -66.91479 34745 ft 425 kts 50°
2026-05-01 10:49 45.98159 -66.85557 34744 ft 425 kts 50°
2026-05-01 10:50 46.02395 -66.79620 34743 ft 425 kts 50°
2026-05-01 10:50 46.06636 -66.73659 34753 ft 426 kts 50°
2026-05-01 10:51 46.10872 -66.67695 34751 ft 426 kts 50°
2026-05-01 10:51 46.15114 -66.61709 34760 ft 426 kts 50°
2026-05-01 10:52 46.19339 -66.55731 34754 ft 426 kts 50°
2026-05-01 10:52 46.23565 -66.49740 34770 ft 426 kts 50°
2026-05-01 10:53 46.27767 -66.43768 34770 ft 426 kts 50°
2026-05-01 10:53 46.31985 -66.37760 34771 ft 426 kts 50°
2026-05-01 10:54 46.36202 -66.31739 34776 ft 426 kts 51°
2026-05-01 10:54 46.40419 -66.25705 34783 ft 426 kts 51°
2026-05-01 10:55 46.44627 -66.19670 34784 ft 426 kts 51°
2026-05-01 10:55 46.48839 -66.13615 34787 ft 426 kts 51°
2026-05-01 10:56 46.53043 -66.07558 34771 ft 426 kts 51°
2026-05-01 10:56 46.57243 -66.01492 34793 ft 426 kts 51°
2026-05-01 10:57 46.61449 -65.95405 34803 ft 426 kts 51°
2026-05-01 10:57 46.65649 -65.89311 34793 ft 426 kts 51°
2026-05-01 10:58 46.69842 -65.83214 34791 ft 426 kts 51°
2026-05-01 10:58 46.74036 -65.77100 34812 ft 426 kts 51°
2026-05-01 10:59 46.78220 -65.70989 34813 ft 426 kts 51°
2026-05-01 10:59 46.82402 -65.64864 34808 ft 426 kts 51°
2026-05-01 11:00 46.86572 -65.58740 34813 ft 428 kts 51°
2026-05-01 11:00 46.90768 -65.52566 34827 ft 429 kts 50°
2026-05-01 11:01 46.94980 -65.46356 34832 ft 429 kts 50°
2026-05-01 11:01 46.99186 -65.40138 34830 ft 429 kts 51°
2026-05-01 11:02 47.03385 -65.33916 34831 ft 429 kts 50°